YAOGAN-30 N (44449 NORAD) Tracking and Keplerian Element Data

This shows tracking and keplerian element data for the satellite.

Feedback or suggestion? Click here.




ElementValue
Catalog44449
NameYAOGAN-30 N
Epoch Orbit433
Epoch Day236.18367883
Epoch Year2019
RAAN165.3077
Inclination34.9963
Eccentricity0.0004254
Argument of Perigee32.4324
Mean Anonmoly327.663
Mean Motion14.89661475
Decay Rate8.1E-07
L11 44449U 19045A 19236.18367883 .00000081 00000-0 11042-4 0 9990
L22 44449 34.9963 165.3077 0004254 32.4324 327.6630 14.89661475 4331

Live tracking and technical data element details for YAOGAN-30 N (NORAD 44449). YAOGAN-30 N can be tracked NOW for your location showing map with azimuth and elevation plus other details from your city location.

Track the satellite on the map from your city or location and see movement details for azimuth, elevation, latitude, longitude, range, height, and movement on the map or in text.







IsCatalogInMostPopularTable: catalog: 44449, numindb: 14
Update: records affected: 1



GetName: 44449 YAOGAN-30 N

Hit Count: updated at: Wed, 23 Oct 2019 00:55:04 GMT